Location: *
(18.5200°S, 46.4500°E)
Time: 08:19:02
(UTC+00:00)

COBE Rocket - Pass Details

Date: 19 July 2019
Orbit: 679 x 783 km, 97.1° (Epoch: 25 August)

Event Time Altitude Azimuth Distance (km) Brightness Sun altitude
Rises 15:11:09 0° 12° (NNE) 3,032 7.2 -8.9°
Reaches altitude 10° 15:13:23 10° 12° (NNE) 2,116 6.4 -9.4°
Maximum altitude 15:18:00 89° 86° (E) 686 3.8 -10.4°
Drops below altitude 10° 15:22:41 10° 190° (S) 2,135 6.2 -11.4°
Sets 15:24:56 0° 190° (S) 3,062 7.0 -11.9°
